Location: Unspecified
(49.9820°N, 20.4363°E)
Time: 03:54:52
(UTC+02:00)

Vanguard 3 - Pass Details

Date: 14 May 2026
Orbit: 507 x 3204 km, 33.3° (Epoch: 6 June)

Event Time Altitude Azimuth Distance (km) Brightness Sun altitude
Rises 20:19:03 0° 273° (W) 6,888 13.1 -1.2°
Reaches altitude 10° 20:25:48 10° 260° (W) 5,502 12.2 -2.1°
Maximum altitude 20:35:17 19° 223° (SW) 4,019 10.8 -3.4°
Drops below altitude 10° 20:42:29 10° 182° (S) 4,018 10.4 -4.4°
Sets 20:46:22 0° 165° (SSE) 4,559 10.5 -4.8°
